Weather History for McGrath, AK

Change the Weather History Date:

Wednesday, May 1, 2013

  Actual Average Record
Temperature  
Mean Temperature 28 °F 40 °F  
Max Temperature 33 °F 50 °F 67 °F (1995)
Min Temperature 23 °F 30 °F 1 °F (1945)
Degree Days  
Heating Degree Days 37 25  
Month to date heating degree days 37 25  
Since 1 July heating degree days 13655 12979  
Cooling Degree Days 0    
Month to date cooling degree days 0  
Year to date cooling degree days 0  
Moisture  
Dew Point 21 °F    
Average Humidity 70    
Maximum Humidity 81    
Minimum Humidity 49    
Precipitation  
Precipitation T in 0.03 in 0.31 in (2011)
Month to date precipitation T 0.03  
Year to date precipitation 3.79 3.61  
Snow  
Snow T in 0.10 in 2.10 in (2001)
Month to date snowfall T 0.1  
Since 1 July snowfall 74.3 96.5  
Snow Depth 14.00 in    
Sea Level Pressure  
Sea Level Pressure 29.75 in    
Wind  
Wind Speed 7 mph (NNE)    
Max Wind Speed 16 mph    
Max Gust Speed 23 mph    
Visibility 10 miles    
Events Snow    
T = Trace of Precipitation, MM = Missing Value Source: NWS Daily Summary

Daily Weather History Graph

Daily Weather History Graph

Search for Another Location

Airport:

Trip Planner

Search our weather history database for the weather conditions in past years. The results will help you decide how hot, cold, wet, or windy it might be!

Date:

Astronomy

May. 01, 2013 Rise Set
Actual Time 6:01 AM AKDT 10:39 PM AKDT
Civil Twilight 4:57 AM AKDT 11:44 PM AKDT
Nautical Twilight 2:51 AM AKDT 1:46 AM AKDT
Astronomical Twilight Sun does not rise Sun does not rise
Moon 3:55 AM AKDT (5/1) 11:57 AM AKDT (5/1)
Length of Visible Light 18h 46m
Length of Day
16h 38m
Waning Gibbous, 57% of the Moon is Illuminated
May 1
Waning Gibbous
May 2
Last Quarter
May 9
New
May 17
First Quarter
May 24
Full

Hourly Weather History & Observations

Time (AKDT) Temp. Windchill Dew Point Humidity Pressure Visibility Wind Dir Wind Speed Gust Speed Precip Events Conditions
12:53 AM 26.1 °F 20.5 °F 17.1 °F 69% 29.87 in 10.0 mi North 4.6 mph - N/A   Overcast
1:53 AM 25.0 °F 19.3 °F 17.1 °F 72% 29.86 in 10.0 mi North 4.6 mph - N/A   Overcast
2:53 AM 25.0 °F 20.7 °F 18.0 °F 75% 29.84 in 10.0 mi North 3.5 mph - N/A   Overcast
3:53 AM 25.0 °F 18.1 °F 19.0 °F 78% 29.83 in 10.0 mi North 5.8 mph - N/A   Mostly Cloudy
4:53 AM 23.0 °F 17.0 °F 18.0 °F 81% 29.81 in 10.0 mi North 4.6 mph - N/A   Mostly Cloudy
5:53 AM 23.0 °F 18.4 °F 18.0 °F 81% 29.80 in 10.0 mi North 3.5 mph - N/A   Mostly Cloudy
6:53 AM 23.0 °F 18.4 °F 18.0 °F 81% 29.78 in 10.0 mi North 3.5 mph - N/A   Mostly Cloudy
7:53 AM 24.1 °F 18.2 °F 18.0 °F 77% 29.77 in 10.0 mi North 4.6 mph - N/A   Mostly Cloudy
8:44 AM 24.8 °F 17.9 °F 19.4 °F 80% 29.74 in 10.0 mi North 5.8 mph - N/A   Overcast
8:53 AM 25.0 °F 18.1 °F 19.0 °F 78% 29.76 in 7.0 mi North 5.8 mph - 0.00 in Snow Light Snow
9:53 AM 28.0 °F 18.1 °F 21.0 °F 75% 29.75 in 9.0 mi North 11.5 mph - 0.00 in Snow Light Snow
10:37 AM 28.4 °F 18.5 °F 21.2 °F 74% 29.72 in 8.0 mi NNE 11.5 mph - 0.00 in Snow Light Snow
10:53 AM 30.0 °F 20.0 °F 21.0 °F 69% 29.74 in 7.0 mi North 12.7 mph - 0.00 in Snow Light Snow
11:53 AM 30.0 °F 21.1 °F 21.9 °F 72% 29.73 in 9.0 mi North 10.4 mph - 0.00 in Snow Light Snow
12:45 PM 32.0 °F 24.2 °F 21.2 °F 64% 29.70 in 9.0 mi NNE 9.2 mph - 0.00 in Snow Light Snow
12:53 PM 30.9 °F 23.5 °F 21.9 °F 69% 29.73 in 9.0 mi North 8.1 mph - 0.00 in Snow Light Snow
1:38 PM 30.2 °F 20.2 °F 21.2 °F 69% 29.70 in 9.0 mi North 12.7 mph - 0.00 in Snow Light Snow
1:53 PM 32.0 °F 23.0 °F 21.9 °F 66% 29.72 in 9.0 mi North 11.5 mph - 0.00 in Snow Light Snow
2:53 PM 33.1 °F 23.9 °F 23.0 °F 66% 29.71 in 9.0 mi NNE 12.7 mph 21.9 mph 0.00 in Snow Light Snow
3:53 PM 33.1 °F 23.9 °F 21.0 °F 61% 29.70 in 10.0 mi NNE 12.7 mph - 0.00 in   Overcast
4:53 PM 34.0 °F 26.0 °F 21.9 °F 61% 29.69 in 9.0 mi NNE 10.4 mph - 0.00 in Snow Light Snow
5:53 PM 34.0 °F 25.0 °F 21.0 °F 59% 29.69 in 10.0 mi NE 12.7 mph - N/A   Overcast
6:53 PM 34.0 °F 25.0 °F 19.9 °F 56% 29.68 in 10.0 mi North 12.7 mph 20.7 mph N/A   Overcast
7:53 PM 33.1 °F 26.1 °F 19.9 °F 59% 29.70 in 10.0 mi NNE 8.1 mph - N/A   Overcast
8:53 PM 32.0 °F 27.5 °F 24.1 °F 73% 29.70 in 10.0 mi East 4.6 mph - N/A   Overcast
9:53 PM 32.0 °F 26.4 °F 24.1 °F 73% 29.71 in 10.0 mi East 5.8 mph - 0.00 in   Overcast
10:53 PM 30.9 °F 26.2 °F 21.9 °F 69% 29.73 in 10.0 mi East 4.6 mph - N/A   Overcast
11:53 PM 30.9 °F - 23.0 °F 72% 29.74 in 10.0 mi Calm Calm - N/A   Overcast